Location: Archemont
(49.1579°N, 1.7598°E)
Time: 11:59:33
(UTC+00:00)

Cosmos 1954 Rocket - Pass Details

Date: 03 February 2023
Orbit: 751 x 780 km, 74.0° (Epoch: 25 March)

Event Time Altitude Azimuth Distance (km) Brightness Sun altitude
Rises 18:10:32 0° 197° (SSW) 3,230 7.6 -13.0°
Reaches altitude 10° 18:12:54 10° 195° (SSW) 2,304 6.8 -13.3°
Maximum altitude 18:18:08 77° 110° (ESE) 789 3.9 -14.2°
Drops below altitude 10° 18:23:20 10° 26° (NNE) 2,301 6.2 -15.0°
Enters shadow 18:24:37 - 25° (NNE) 2,798 6.6 -15.2°
